| time (UTC) | temp C | wind direction | speed KPH | gust KPH | rain 1hr cm | rain 24hr cm | rain mn cm | humidity % | barometer mb |
| 20260509043020 | 15 | 0.0 | 0.0 | 0.00 | 0.00 | 0.00 | 70 | 1010.1 | |
| 20260509042020 | 15 | 0.0 | 1.6 | 0.00 | 0.00 | 0.00 | 68 | 1010.0 | |
| 20260509041020 | 15 | 0.0 | 0.0 | 0.00 | 0.00 | 0.00 | 67 | 1010.0 | |
| 20260509040040 | 15 | 0.0 | 0.0 | 0.00 | 0.00 | 0.00 | 69 | 1010.0 | |
| 20260509035040 | 15 | 0.0 | 0.0 | 0.00 | 0.00 | 0.00 | 66 | 1010.2 | |
| 20260509034020 | 15 | 0.0 | 0.0 | 0.00 | 0.00 | 0.00 | 67 | 1010.4 | |
| 20260509033020 | 15 | 0.0 | 0.0 | 0.00 | 0.00 | 0.00 | 66 | 1010.3 | |
| 20260509032020 | 15 | 0.0 | 0.0 | 0.00 | 0.00 | 0.00 | 68 | 1010.4 | |
| 20260509031042 | 15 | 0.0 | 0.0 | 0.00 | 0.00 | 0.00 | 67 | 1010.5 | |
| 20260509030020 | 15 | 0.0 | 0.0 | 0.00 | 0.00 | 0.00 | 68 | 1010.3 | |
| 20260509025020 | 14 | 0.0 | 0.0 | 0.00 | 0.00 | 0.00 | 71 | 1010.5 | |
| 20260509024022 | 14 | 0.0 | 0.0 | 0.00 | 0.00 | 0.00 | 75 | 1010.8 | |
| 20260509023018 | 14 | 0.0 | 0.0 | 0.00 | 0.00 | 0.00 | 75 | 1010.9 | |
| 20260509022020 | 15 | 0.0 | 0.0 | 0.00 | 0.00 | 0.00 | 74 | 1010.8 | |
| 20260509021020 | 15 | 0.0 | 0.0 | 0.00 | 0.00 | 0.00 | 73 | 1010.7 | |
| 20260509020020 | 15 | 0.0 | 0.0 | 0.00 | 0.00 | 0.00 | 71 | 1010.6 | |
| 20260509015018 | 15 | 0.0 | 0.0 | 0.00 | 0.00 | 0.00 | 72 | 1010.5 | |
| 20260509014020 | 15 | 0.0 | 0.0 | 0.00 | 0.00 | 0.00 | 70 | 1010.5 | |
| 20260509013020 | 15 | 0.0 | 0.0 | 0.00 | 0.00 | 0.00 | 68 | 1010.4 | |
| 20260509012020 | 15 | 0.0 | 0.0 | 0.00 | 0.00 | 0.00 | 66 | 1010.3 | |
| 20260509011040 | 16 | 0.0 | 0.0 | 0.00 | 0.00 | 0.00 | 63 | 1010.5 | |
| 20260509010020 | 17 | 0.0 | 0.0 | 0.00 | 0.00 | 0.00 | 60 | 1010.5 | |
| 20260509005020 | 17 | 0.0 | 1.6 | 0.00 | 0.00 | 0.00 | 54 | 1010.4 | |
| 20260509004018 | 18 | 0.0 | 1.6 | 0.00 | 0.00 | 0.00 | 53 | 1010.4 | |
| 20260509003018 | 18 | 0.0 | 6.4 | 0.00 | 0.00 | 0.00 | 51 | 1010.4 | |
| 20260509002020 | 19 | 0.0 | 1.6 | 0.00 | 0.00 | 0.00 | 49 | 1010.2 | |
| 20260509001020 | 19 | 0.0 | 6.4 | 0.00 | 0.00 | 0.00 | 48 | 1010.3 | |
| 20260509000020 | 20 | 0.0 | 1.6 | 0.00 | 0.00 | 0.00 | 47 | 1010.2 | |
| 20260508235020 | 20 | 270 | 1.6 | 4.8 | 0.00 | 0.00 | 0.00 | 46 | 1010.4 |
| 20260508234018 | 20 | 225 | 1.6 | 8.0 | 0.00 | 0.00 | 0.00 | 46 | 1010.4 |
| 20260508233020 | 20 | 270 | 1.6 | 8.0 | 0.00 | 0.00 | 0.00 | 47 | 1010.4 |
| 20260508232040 | 20 | 270 | 3.2 | 8.0 | 0.00 | 0.00 | 0.00 | 45 | 1010.4 |
| 20260508231020 | 20 | 225 | 3.2 | 11.3 | 0.00 | 0.00 | 0.00 | 46 | 1010.4 |
| 20260508230040 | 20 | 248 | 3.2 | 11.3 | 0.00 | 0.00 | 0.00 | 44 | 1010.5 |
| 20260508225018 | 21 | 270 | 3.2 | 14.5 | 0.00 | 0.00 | 0.00 | 44 | 1010.6 |
| 20260508224040 | 21 | 270 | 1.6 | 6.4 | 0.00 | 0.00 | 0.00 | 44 | 1010.6 |
| 20260508223020 | 22 | 225 | 1.6 | 6.4 | 0.00 | 0.00 | 0.00 | 41 | 1010.4 |
| 20260508222020 | 22 | 225 | 1.6 | 6.4 | 0.00 | 0.00 | 0.00 | 42 | 1010.4 |
| 20260508221018 | 22 | 270 | 1.6 | 8.0 | 0.00 | 0.00 | 0.00 | 40 | 1010.4 |
| 20260508220020 | 22 | 113 | 3.2 | 11.3 | 0.00 | 0.00 | 0.00 | 40 | 1010.2 |
| 20260508215040 | 22 | 248 | 3.2 | 11.3 | 0.00 | 0.00 | 0.00 | 40 | 1010.2 |
| 20260508214020 | 22 | 270 | 1.6 | 4.8 | 0.00 | 0.00 | 0.00 | 43 | 1010.4 |
| 20260508213020 | 22 | 270 | 3.2 | 6.4 | 0.00 | 0.00 | 0.00 | 41 | 1010.5 |
| 20260508212040 | 22 | 270 | 1.6 | 6.4 | 0.00 | 0.00 | 0.00 | 41 | 1010.6 |
| 20260508211018 | 22 | 248 | 3.2 | 11.3 | 0.00 | 0.00 | 0.00 | 43 | 1010.7 |
| 20260508210040 | 22 | 270 | 3.2 | 11.3 | 0.00 | 0.00 | 0.00 | 41 | 1010.8 |
| 20260508205040 | 22 | 225 | 3.2 | 9.7 | 0.00 | 0.00 | 0.00 | 39 | 1011.0 |
| 20260508204018 | 22 | 248 | 3.2 | 11.3 | 0.00 | 0.00 | 0.00 | 40 | 1011.0 |
| 20260508203040 | 22 | 270 | 3.2 | 9.7 | 0.00 | 0.00 | 0.00 | 40 | 1011.2 |
| 20260508202038 | 22 | 225 | 3.2 | 9.7 | 0.00 | 0.00 | 0.00 | 43 | 1011.4 |
| 20260508201040 | 22 | 270 | 3.2 | 12.9 | 0.00 | 0.00 | 0.00 | 41 | 1011.7 |
| 20260508200020 | 22 | 248 | 4.8 | 11.3 | 0.00 | 0.00 | 0.00 | 40 | 1011.9 |
| 20260508195020 | 22 | 225 | 3.2 | 11.3 | 0.00 | 0.00 | 0.00 | 41 | 1012.1 |
| 20260508194021 | 22 | 113 | 1.6 | 8.0 | 0.00 | 0.00 | 0.00 | 43 | 1012.1 |
| 20260508193020 | 22 | 225 | 3.2 | 9.7 | 0.00 | 0.00 | 0.00 | 39 | 1012.6 |
| 20260508192020 | 22 | 248 | 1.6 | 11.3 | 0.00 | 0.00 | 0.00 | 44 | 1012.6 |
| 20260508191018 | 22 | 248 | 3.2 | 8.0 | 0.00 | 0.00 | 0.00 | 42 | 1012.8 |
| 20260508190018 | 22 | 293 | 3.2 | 11.3 | 0.00 | 0.00 | 0.00 | 44 | 1012.6 |
| 20260508185020 | 22 | 315 | 3.2 | 12.9 | 0.00 | 0.00 | 0.00 | 42 | 1012.5 |
| 20260508184020 | 22 | 68 | 3.2 | 12.9 | 0.00 | 0.00 | 0.00 | 42 | 1012.4 |
| 20260508183018 | 22 | 225 | 1.6 | 8.0 | 0.00 | 0.00 | 0.00 | 44 | 1012.6 |
| 20260508182020 | 22 | 270 | 3.2 | 11.3 | 0.00 | 0.00 | 0.00 | 41 | 1013.0 |
| 20260508181040 | 22 | 225 | 1.6 | 8.0 | 0.00 | 0.00 | 0.00 | 42 | 1013.1 |
| 20260508180020 | 22 | 0.0 | 3.2 | 0.00 | 0.00 | 0.00 | 42 | 1013.3 | |
| 20260508175018 | 21 | 270 | 3.2 | 8.0 | 0.00 | 0.00 | 0.00 | 48 | 1013.6 |
| 20260508174042 | 21 | 225 | 1.6 | 9.7 | 0.00 | 0.00 | 0.00 | 43 | 1013.7 |
| 20260508173020 | 21 | 270 | 3.2 | 11.3 | 0.00 | 0.00 | 0.00 | 46 | 1013.9 |
| 20260508172020 | 21 | 248 | 3.2 | 9.7 | 0.00 | 0.00 | 0.00 | 45 | 1014.3 |
| 20260508171020 | 21 | 248 | 1.6 | 8.0 | 0.00 | 0.00 | 0.00 | 44 | 1014.3 |
| 20260508170020 | 21 | 90 | 3.2 | 9.7 | 0.00 | 0.00 | 0.00 | 44 | 1014.5 |
| 20260508165020 | 21 | 225 | 1.6 | 8.0 | 0.00 | 0.00 | 0.00 | 44 | 1014.8 |
| 20260508164018 | 21 | 203 | 1.6 | 6.4 | 0.00 | 0.00 | 0.00 | 49 | 1015.0 |
| 20260508163018 | 20 | 135 | 1.6 | 4.8 | 0.00 | 0.00 | 0.00 | 48 | 1015.1 |
| 20260508162020 | 20 | 0 | 1.6 | 9.7 | 0.00 | 0.00 | 0.00 | 47 | 1015.3 |
| 20260508161040 | 20 | 270 | 1.6 | 8.0 | 0.00 | 0.00 | 0.00 | 48 | 1015.5 |
| 20260508160038 | 19 | 270 | 3.2 | 11.3 | 0.00 | 0.00 | 0.00 | 47 | 1015.6 |
| 20260508155018 | 19 | 248 | 3.2 | 9.7 | 0.00 | 0.00 | 0.00 | 48 | 1015.7 |
| 20260508154020 | 18 | 248 | 3.2 | 9.7 | 0.00 | 0.00 | 0.00 | 54 | 1016.0 |
| 20260508153020 | 18 | 225 | 3.2 | 11.3 | 0.00 | 0.00 | 0.00 | 49 | 1016.1 |
| 20260508152018 | 18 | 203 | 3.2 | 6.4 | 0.00 | 0.00 | 0.00 | 50 | 1016.1 |
| 20260508151020 | 18 | 203 | 1.6 | 12.9 | 0.00 | 0.00 | 0.00 | 50 | 1016.4 |
| 20260508150020 | 17 | 203 | 1.6 | 9.7 | 0.00 | 0.00 | 0.00 | 50 | 1016.4 |
| 20260508145020 | 17 | 293 | 1.6 | 9.7 | 0.00 | 0.00 | 0.00 | 58 | 1016.4 |
| 20260508144020 | 17 | 225 | 1.6 | 6.4 | 0.00 | 0.00 | 0.00 | 61 | 1016.6 |
| 20260508143018 | 16 | 180 | 1.6 | 4.8 | 0.00 | 0.00 | 0.00 | 60 | 1016.5 |
| 20260508142020 | 15 | 90 | 1.6 | 3.2 | 0.00 | 0.00 | 0.00 | 64 | 1016.6 |
| 20260508141020 | 14 | 113 | 1.6 | 4.8 | 0.00 | 0.00 | 0.00 | 64 | 1016.4 |
| 20260508140018 | 13 | 0.0 | 4.8 | 0.00 | 0.00 | 0.00 | 66 | 1016.6 | |
| 20260508135018 | 12 | 0.0 | 3.2 | 0.00 | 0.00 | 0.00 | 68 | 1016.6 | |
| 20260508134020 | 12 | 0.0 | 1.6 | 0.00 | 0.00 | 0.00 | 68 | 1016.6 | |
| 20260508133040 | 12 | 0.0 | 1.6 | 0.00 | 0.00 | 0.00 | 70 | 1016.5 | |
| 20260508132020 | 11 | 0.0 | 6.4 | 0.00 | 0.00 | 0.00 | 72 | 1016.5 | |
| 20260508131018 | 11 | 0.0 | 3.2 | 0.00 | 0.00 | 0.00 | 74 | 1016.6 | |
| 20260508130020 | 10 | 0.0 | 3.2 | 0.00 | 0.00 | 0.00 | 78 | 1016.4 | |
| 20260508125020 | 9 | 0.0 | 1.6 | 0.00 | 0.00 | 0.00 | 82 | 1016.5 | |
| 20260508124018 | 8 | 0.0 | 1.6 | 0.00 | 0.00 | 0.00 | 88 | 1016.5 | |
| 20260508123018 | 7 | 0.0 | 1.6 | 0.00 | 0.00 | 0.00 | 94 | 1016.4 | |
| 20260508122040 | 6 | 0.0 | 1.6 | 0.00 | 0.00 | 0.00 | 98 | 1016.3 | |
| 20260508121020 | 6 | 0.0 | 0.0 | 0.00 | 0.00 | 0.00 | 98 | 1016.3 | |
| 20260508120020 | 5 | 0.0 | 0.0 | 0.00 | 0.00 | 0.00 | 98 | 1016.2 | |
| 20260508115020 | 4 | 0.0 | 0.0 | 0.00 | 0.00 | 0.00 | 98 | 1016.1 | |
| 20260508114020 | 3 | 0.0 | 0.0 | 0.00 | 0.00 | 0.00 | 98 | 1016.1 | |
| 20260508113021 | 3 | 0.0 | 0.0 | 0.00 | 0.00 | 0.00 | 98 | 1015.9 | |
| 20260508112020 | 3 | 0.0 | 0.0 | 0.00 | 0.00 | 0.00 | 97 | 1016.0 | |
| 20260508111018 | 3 | 0.0 | 0.0 | 0.00 | 0.00 | 0.00 | 97 | 1015.8 | |
| 20260508110018 | 3 | 0.0 | 0.0 | 0.00 | 0.00 | 0.00 | 97 | 1015.8 | |
| 20260508105020 | 3 | 0.0 | 0.0 | 0.00 | 0.00 | 0.00 | 97 | 1015.8 | |
| 20260508104020 | 3 | 0.0 | 0.0 | 0.00 | 0.00 | 0.00 | 97 | 1015.7 | |
| 20260508103018 | 3 | 0.0 | 0.0 | 0.00 | 0.00 | 0.00 | 97 | 1015.7 | |
| 20260508102018 | 3 | 0.0 | 0.0 | 0.00 | 0.00 | 0.00 | 97 | 1015.6 | |
| 20260508101020 | 3 | 0.0 | 0.0 | 0.00 | 0.00 | 0.00 | 97 | 1015.6 | |
| 20260508100040 | 3 | 0.0 | 0.0 | 0.00 | 0.00 | 0.00 | 97 | 1015.7 | |
| 20260508095018 | 3 | 0.0 | 0.0 | 0.00 | 0.00 | 0.00 | 97 | 1015.8 | |
| 20260508094018 | 3 | 0.0 | 0.0 | 0.00 | 0.00 | 0.00 | 97 | 1015.8 | |
| 20260508093020 | 3 | 0.0 | 0.0 | 0.00 | 0.00 | 0.00 | 97 | 1015.7 | |
| 20260508092020 | 3 | 0.0 | 0.0 | 0.00 | 0.00 | 0.00 | 97 | 1015.7 | |
| 20260508091020 | 3 | 0.0 | 0.0 | 0.00 | 0.00 | 0.00 | 97 | 1015.7 | |
| 20260508090018 | 3 | 0.0 | 0.0 | 0.00 | 0.00 | 0.00 | 97 | 1015.6 | |
| 20260508085020 | 3 | 0.0 | 0.0 | 0.00 | 0.00 | 0.00 | 97 | 1015.5 | |
| 20260508084018 | 3 | 0.0 | 0.0 | 0.00 | 0.00 | 0.00 | 96 | 1015.5 | |
| 20260508083040 | 3 | 0.0 | 0.0 | 0.00 | 0.00 | 0.00 | 97 | 1015.5 | |
| 20260508082020 | 3 | 0.0 | 0.0 | 0.00 | 0.00 | 0.00 | 96 | 1015.6 | |
| 20260508081018 | 3 | 0.0 | 0.0 | 0.00 | 0.00 | 0.00 | 96 | 1015.6 | |
| 20260508080018 | 3 | 0.0 | 0.0 | 0.00 | 0.00 | 0.00 | 96 | 1015.6 | |
| 20260508075040 | 3 | 0.0 | 0.0 | 0.00 | 0.00 | 0.00 | 96 | 1015.5 | |
| 20260508074020 | 3 | 0.0 | 0.0 | 0.00 | 0.00 | 0.00 | 96 | 1015.5 | |
| 20260508073018 | 3 | 0.0 | 0.0 | 0.00 | 0.00 | 0.00 | 96 | 1015.6 | |
| 20260508072020 | 3 | 0.0 | 0.0 | 0.00 | 0.00 | 0.00 | 96 | 1015.6 | |
| 20260508071020 | 3 | 0.0 | 0.0 | 0.00 | 0.00 | 0.00 | 96 | 1015.6 | |
| 20260508070020 | 3 | 0.0 | 0.0 | 0.00 | 0.00 | 0.00 | 96 | 1015.7 | |
| 20260508065018 | 4 | 0.0 | 0.0 | 0.00 | 0.00 | 0.00 | 96 | 1015.7 | |
| 20260508064018 | 4 | 0.0 | 0.0 | 0.00 | 0.00 | 0.00 | 96 | 1015.8 | |
| 20260508063020 | 4 | 0.0 | 0.0 | 0.00 | 0.00 | 0.00 | 95 | 1015.9 | |
| 20260508062040 | 4 | 0.0 | 0.0 | 0.00 | 0.00 | 0.00 | 95 | 1016.0 | |
| 20260508061018 | 4 | 0.0 | 0.0 | 0.00 | 0.00 | 0.00 | 95 | 1016.2 | |
| 20260508060018 | 5 | 0.0 | 0.0 | 0.00 | 0.00 | 0.00 | 95 | 1016.2 | |
| 20260508055020 | 5 | 0.0 | 0.0 | 0.00 | 0.00 | 0.00 | 95 | 1016.2 | |
| 20260508054020 | 5 | 0.0 | 0.0 | 0.00 | 0.00 | 0.00 | 95 | 1016.2 | |
| 20260508053020 | 5 | 0.0 | 0.0 | 0.00 | 0.00 | 0.00 | 95 | 1016.4 | |
| 20260508052024 | 5 | 0.0 | 0.0 | 0.00 | 0.00 | 0.00 | 94 | 1016.4 | |
| 20260508051020 | 5 | 0.0 | 0.0 | 0.00 | 0.00 | 0.00 | 94 | 1016.3 | |
| 20260508050020 | 5 | 0.0 | 0.0 | 0.00 | 0.00 | 0.00 | 94 | 1016.3 | |
| 20260508045038 | 5 | 0.0 | 0.0 | 0.00 | 0.00 | 0.00 | 94 | 1016.1 | |
| 20260508044020 | 5 | 0.0 | 0.0 | 0.00 | 0.00 | 0.00 | 94 | 1016.2 |